Location: Fort Wayne
(41.1310°N, 85.1290°W)
Time: 22:13:25
(UTC-04:00)

Meteor 2-10 Rocket - Visible Passes

Search period start: 27 August 2015 00:00
Search period end: 06 September 2015 00:00
Orbit: 734 x 885 km, 81.2° (Epoch: 26 August)

Date Brightness Start Highest point End Pass type
(mag) Time Alt. Az. Time Alt. Az. Time Alt. Az.
27 Aug 6.1 06:03:33 10° SE 06:08:09 26° E 06:12:47 10° NE visible
28 Aug 6.5 05:40:19 10° SE 05:44:04 19° E 05:47:57 10° NE visible
29 Aug 6.6 05:17:38 10° ESE 05:20:00 13° E 05:22:41 10° ENE visible
30 Aug 4.0 06:31:37 10° S 06:37:18 76° E 06:42:51 10° NNE visible
31 Aug 4.5 06:07:37 10° S 06:13:08 55° E 06:18:31 10° NNE visible
01 Sep 5.1 05:43:48 10° SSE 05:48:59 39° E 05:54:05 10° NNE visible
02 Sep 5.7 05:20:12 10° SSE 05:24:52 28° E 05:29:30 10° NNE visible
03 Sep 6.1 04:56:54 10° SE 05:00:46 20° E 05:04:45 10° NE visible
03 Sep 3.9 06:37:02 10° SSW 06:42:31 51° WNW 06:47:49 10° N visible
04 Sep 6.4 04:34:04 10° ESE 04:36:41 14° E 04:39:35 10° NE visible
04 Sep 3.6 06:12:38 10° SSW 06:18:16 72° W 06:23:42 10° N visible
05 Sep 3.7 05:48:25 10° S 05:54:02 83° E 05:59:28 10° NNE visible
